QFA25 YSCB-YSSY

Flight info

Callsign QFA25
Flight time N/A
Altitude 15000
Route CULIN Y59 RIVET
Aircraft A20N/M-SDE2E3FGHIRWXY/LB1

Departure

Time N/A
Airport Canberra Airport (YSCB)

Arrival

Time 2026-05-05 11:02
Airport Sydney Kingsford Smith International Airport (YSSY)
Time Latitude Longitude Altitude Speed Heading
2026-05-05 10:41 -34.42404 150.11305 15264 ft 404 kts 62°
2026-05-05 10:41 -34.41074 150.14301 15260 ft 405 kts 61°
2026-05-05 10:42 -34.38361 150.20409 15258 ft 415 kts 61°
2026-05-05 10:42 -34.36992 150.23491 15254 ft 416 kts 61°
2026-05-05 10:42 -34.35624 150.26567 15253 ft 416 kts 61°
2026-05-05 10:43 -34.34251 150.29651 15248 ft 416 kts 61°
2026-05-05 10:43 -34.32878 150.32732 15252 ft 416 kts 61°
2026-05-05 10:43 -34.31503 150.35809 15245 ft 416 kts 61°
2026-05-05 10:43 -34.30129 150.38862 15247 ft 409 kts 61°
2026-05-05 10:44 -34.28766 150.41855 15243 ft 405 kts 61°
2026-05-05 10:44 -34.27414 150.44829 15243 ft 404 kts 61°
2026-05-05 10:44 -34.26093 150.47752 15245 ft 411 kts 61°
2026-05-05 10:44 -34.24773 150.50684 15242 ft 414 kts 61°
2026-05-05 10:45 -34.23396 150.53752 15074 ft 417 kts 61°
2026-05-05 10:45 -34.22013 150.56834 14402 ft 416 kts 61°
2026-05-05 10:45 -34.20637 150.59901 13586 ft 414 kts 62°
2026-05-05 10:45 -34.19271 150.62942 12767 ft 411 kts 62°
2026-05-05 10:46 -34.17910 150.65970 12012 ft 407 kts 62°
2026-05-05 10:46 -34.16573 150.68941 11415 ft 399 kts 62°
2026-05-05 10:46 -34.15256 150.71862 10854 ft 391 kts 62°
2026-05-05 10:46 -34.13974 150.74703 10470 ft 379 kts 62°
2026-05-05 10:47 -34.12737 150.77440 10233 ft 364 kts 62°
2026-05-05 10:47 -34.11550 150.80060 10017 ft 349 kts 62°
2026-05-05 10:47 -34.10422 150.82549 9787 ft 335 kts 62°
2026-05-05 10:47 -34.09328 150.84966 9564 ft 322 kts 61°
2026-05-05 10:48 -34.08275 150.87294 9365 ft 310 kts 61°
2026-05-05 10:48 -34.07456 150.89106 9195 ft 301 kts 61°
2026-05-05 10:48 -34.06462 150.91303 8809 ft 297 kts 61°
2026-05-05 10:48 -34.05479 150.93478 8389 ft 295 kts 61°
2026-05-05 10:49 -34.04506 150.95634 8078 ft 289 kts 61°
2026-05-05 10:49 -34.03551 150.97749 7887 ft 287 kts 61°
2026-05-05 10:49 -34.02597 150.99866 7717 ft 287 kts 61°
2026-05-05 10:49 -34.01663 151.01960 7527 ft 287 kts 61°
2026-05-05 10:50 -34.00724 151.04072 7350 ft 286 kts 60°
2026-05-05 10:50 -33.99481 151.05901 7131 ft 282 kts 36°
2026-05-05 10:50 -33.97732 151.06896 6708 ft 278 kts
2026-05-05 10:50 -33.95821 151.06996 6305 ft 274 kts 355°
2026-05-05 10:51 -33.93924 151.06788 5851 ft 274 kts 352°
2026-05-05 10:51 -33.92023 151.06517 5368 ft 276 kts 352°
2026-05-05 10:51 -33.90443 151.06269 5008 ft 276 kts 352°
2026-05-05 10:51 -33.88545 151.05948 4591 ft 275 kts 352°
2026-05-05 10:52 -33.86686 151.05625 4187 ft 273 kts 352°
2026-05-05 10:52 -33.84916 151.05314 3791 ft 273 kts 352°
2026-05-05 10:52 -33.83004 151.04973 3375 ft 272 kts 352°
2026-05-05 10:52 -33.81142 151.04637 3205 ft 270 kts 352°
2026-05-05 10:53 -33.79276 151.04303 3195 ft 271 kts 352°
2026-05-05 10:53 -33.77409 151.03967 3193 ft 272 kts 352°
2026-05-05 10:53 -33.75538 151.03631 3195 ft 272 kts 352°
2026-05-05 10:53 -33.73758 151.03488 3194 ft 271 kts
2026-05-05 10:54 -33.72034 151.04254 3200 ft 258 kts 38°
2026-05-05 10:54 -33.70805 151.05659 3194 ft 239 kts 48°
2026-05-05 10:54 -33.69647 151.07017 3198 ft 227 kts 45°
2026-05-05 10:54 -33.68576 151.08375 3193 ft 222 kts 63°
2026-05-05 10:55 -33.68314 151.10111 3197 ft 213 kts 106°
2026-05-05 10:55 -33.68738 151.11162 3196 ft 209 kts 134°
2026-05-05 10:55 -33.69888 151.12248 3198 ft 211 kts 154°
2026-05-05 10:55 -33.71239 151.12820 3189 ft 201 kts 167°
2026-05-05 10:56 -33.72560 151.13134 3197 ft 184 kts 169°
2026-05-05 10:56 -33.73748 151.13412 3181 ft 174 kts 169°
2026-05-05 10:56 -33.74362 151.13506 3189 ft 173 kts 174°
2026-05-05 10:56 -33.75553 151.13569 3181 ft 172 kts 178°
2026-05-05 10:57 -33.76746 151.13540 3044 ft 172 kts 182°
2026-05-05 10:57 -33.77942 151.13425 2985 ft 172 kts 185°
2026-05-05 10:57 -33.79130 151.13394 2799 ft 170 kts 174°
2026-05-05 10:57 -33.80275 151.13595 2567 ft 164 kts 169°
2026-05-05 10:58 -33.81281 151.13855 2375 ft 162 kts 167°
2026-05-05 10:58 -33.82219 151.14160 2187 ft 160 kts 164°
2026-05-05 10:58 -33.83275 151.14578 1968 ft 160 kts 161°
2026-05-05 10:58 -33.84337 151.15004 1744 ft 160 kts 166°
2026-05-05 10:59 -33.85413 151.15283 1522 ft 160 kts 171°
2026-05-05 10:59 -33.86525 151.15536 1315 ft 161 kts 169°
2026-05-05 10:59 -33.87022 151.15658 1209 ft 161 kts 169°
2026-05-05 10:59 -33.87867 151.15877 1047 ft 161 kts 169°
2026-05-05 11:00 -33.88928 151.16151 835 ft 156 kts 169°
2026-05-05 11:00 -33.89966 151.16416 654 ft 153 kts 169°
2026-05-05 11:00 -33.90993 151.16678 448 ft 152 kts 169°
2026-05-05 11:00 -33.92047 151.16947 240 ft 156 kts 169°
2026-05-05 11:01 -33.92953 151.17165 88 ft 155 kts 169°
2026-05-05 11:01 -33.93374 151.17271 46 ft 151 kts 168°
2026-05-05 11:01 -33.94258 151.17502 28 ft 107 kts 168°
2026-05-05 11:01 -33.94785 151.17633 26 ft 63 kts 173°
2026-05-05 11:02 -33.95133 151.17611 23 ft 15 kts 207°
2026-05-05 11:02 -33.95130 151.17525 22 ft 10 kts 342°
2026-05-05 11:02 -33.95074 151.17506 25 ft 7 kts 349°
2026-05-05 11:02 -33.95055 151.17501 23 ft 0 kts 349°
2026-05-05 11:04 -33.95039 151.17497 23 ft 9 kts 348°
2026-05-05 11:04 -33.94933 151.17473 23 ft 22 kts 348°
2026-05-05 11:05 -33.94767 151.17431 26 ft 24 kts 348°
2026-05-05 11:05 -33.94615 151.17392 29 ft 21 kts 347°
2026-05-05 11:05 -33.94474 151.17353 30 ft 21 kts 346°
2026-05-05 11:05 -33.94397 151.17333 29 ft 0 kts 348°
2026-05-05 11:07 -33.94376 151.17328 29 ft 12 kts 348°
2026-05-05 11:07 -33.94274 151.17303 26 ft 17 kts 348°
2026-05-05 11:07 -33.94154 151.17272 25 ft 17 kts 347°
2026-05-05 11:08 -33.94065 151.17248 25 ft 10 kts 347°
2026-05-05 11:08 -33.94050 151.17244 24 ft 0 kts 347°
2026-05-05 11:08 -33.94048 151.17243 24 ft 0 kts 347°
2026-05-05 11:08 -33.94006 151.17231 23 ft 12 kts 347°
2026-05-05 11:09 -33.93965 151.17267 23 ft 7 kts 67°
2026-05-05 11:09 -33.93963 151.17271 22 ft 0 kts 68°
2026-05-05 11:09 -33.93963 151.17272 22 ft 0 kts 68°
2026-05-05 11:09 -33.93947 151.17340 21 ft 19 kts 75°
2026-05-05 11:10 -33.93910 151.17497 24 ft 19 kts 73°